Regional Weather Roundup
Issued by NWS

Home | Current Version | Previous Version | Graphics & Text | Print | Product List | Glossary On
Versions: 1 2 3 4 5 6 7 8 9 10 11 12 13 14 15 16 17 18 19 20 21 22 23 24 25 26 27 28 29 30 31 32 33 34 35 36 37 38 39 40 41 42 43 44 45 46 47 48 49 50
000
ASUS45 KABQ 210601
RWRNM
WEATHER ROUNDUP FOR NEW MEXICO
NATIONAL WEATHER SERVICE ALBUQUERQUE NM
1200 AM MDT MON APR 21 2014

NOTE: "FAIR" MEANS FEW OR NO CLOUDS BELOW 12,000 FEET AGL WITH NO
       SIGNIFICANT WEATHER OR OBSTRUCTIONS TO VISION.

      THIS PRODUCT IS RELEASED AS TWO VERSIONS.  ONE VERSION NEAR
      THE TOP OF THE HOUR CONTAINING PRELIMINARY DATA FROM ALBUQUERQUE
      AND OTHER STATIONS.  A FINAL VERSION WITH ADDITIONAL DATA IS
      ISSUED ABOUT 10 MINUTES AFTER THE HOUR.

NMZ501-503-504-510>518-210700-
NORTHWEST PLATEAU/NORTHCENTRAL MOUNTAINS

CITY           SKY/WX    TMP DP  RH WIND       PRES   REMARKS
FARMINGTON     CLEAR     55  28  35 CALM      30.14R
6HR MIN TEMP:  55; 6HR MAX TEMP:  74;

SANTA FE       PTCLDY    52  36  54 VRB3      30.17R
6HR MIN TEMP:  52; 6HR MAX TEMP:  71;

TAOS           CLOUDY    45  39  81 SW3       30.26R

$$
NMZ402-403-502-505>509-210700-
WESTCENTRAL MOUNTAINS/SOUTHWEST MOUNTAINS

CITY           SKY/WX    TMP DP  RH WIND       PRES   REMARKS
GALLUP         PTCLDY    42  19  39 NE5       30.23R
6HR MIN TEMP:  42; 6HR MAX TEMP:  71;

SILVER CITY    CLEAR     50  39  66 N8        30.21R

$$
NMZ407-409-411-412-210700-
SOUTHERN DESERTS

CITY           SKY/WX    TMP DP  RH WIND       PRES   REMARKS
DEMING         CLEAR     58  42  55 W8        30.13S
6HR MIN TEMP:  58; 6HR MAX TEMP:  76;

T OR C         CLEAR     60  39  45 W8        30.13S
6HR MIN TEMP:  58; 6HR MAX TEMP:  71;


$$
NMZ519>523-210700-
CENTRAL VALLEYS/CENTRAL HIGHLANDS

CITY           SKY/WX    TMP DP  RH WIND       PRES   REMARKS
ALBUQUERQUE    MOCLDY    60  36  40 SE5       30.14R
6HR MIN TEMP:  60; 6HR MAX TEMP:  76;

DOUBLE EAGLE   PTCLDY    54  25  32 W10       30.16R
CLINES CORNERS MOCLDY    50  41  71 SE6       30.20R
6HR MIN TEMP:  50; 6HR MAX TEMP:  64; 6HR PCP: TRACE;

BELEN          FAIR      53  37  55 CALM      30.14R
6HR MIN TEMP:  53; 6HR MAX TEMP:  74;

SOCORRO        NOT AVBL

$$
NMZ524>526-539-540-210700-
SOUTHCENTRAL MOUNTAINS

CITY           SKY/WX    TMP DP  RH WIND       PRES   REMARKS
RUIDOSO        NOT AVBL

$$
NMZ527>531-210700-
NORTHEAST HIGHLANDS/NORTHEAST PLAINS

CITY           SKY/WX    TMP DP  RH WIND       PRES   REMARKS
LAS VEGAS      CLOUDY    49  42  77 NW7       30.21S
6HR MIN TEMP:  46; 6HR MAX TEMP:  56; 6HR PCP:  0.01;

RATON          PTCLDY    45  41  86 NE7       30.18R
6HR MIN TEMP:  45; 6HR MAX TEMP:  60;

CLAYTON        CLEAR     54  40  59 W14       30.08R
6HR MIN TEMP:  53; 6HR MAX TEMP:  69;


$$
NMZ532>537-210700-
EASTCENTRAL PLAINS

CITY           SKY/WX    TMP DP  RH WIND       PRES   REMARKS
TUCUMCARI      PTCLDY    58  41  53 W9        30.05R
6HR MIN TEMP:  57; 6HR MAX TEMP:  73;

CANNON AFB     NOT AVBL
CLOVIS AIRPORT   N/A     54  45  71 NW9       30.09S

$$
NMZ028-029-538-210700-
SOUTHEAST PLAINS

CITY           SKY/WX    TMP DP  RH WIND       PRES   REMARKS
ROSWELL        CLEAR     63  40  42 W6        30.04S
6HR MIN TEMP:  61; 6HR MAX TEMP:  79;

CARLSBAD       CLEAR     64  44  48 W13       30.02S
6HR MIN TEMP:  62; 6HR MAX TEMP:  81;

HOBBS          FAIR      59  41  51 W10       30.05S


$$



USA.gov is the U.S. government's official web portal to all federal, state and local government web resources and services.